When you browse on this site, cookies collect data to enhance your experience and personalize the content and advertising you see.
Visit our Privacy Policy to learn more. By continuing to use the site, you agree to this use of cookies and data.
  • In Portugal
  • List of Countries
  • For 7 days
  • Water Temperature
  • Weather Map
  • Weather Widgets
  • user-avatar
    Login

    Hourly Weather La Rioja

    Today, 17 November, Sunday

    Time Temperature Precipitation Wind Pressure Humidity
    00:00 +30°C° 0.1 mm 4 mps 710 mmHg 45%
    01:00 +29°C° 0.1 mm 4 mps 710 mmHg 47%
    02:00 +28°C° 0.1 mm 4 mps 710 mmHg 49%
    03:00 +28°C° 0 mm 4 mps 710 mmHg 50%
    04:00 +27°C° 0 mm 4 mps 710 mmHg 50%
    05:00 +27°C° 0 mm 4 mps 710 mmHg 51%
    06:00 +28°C° 0 mm 4 mps 711 mmHg 48%
    07:00 +29°C° 0 mm 4 mps 711 mmHg 44%
    08:00 +30°C° 0 mm 4 mps 711 mmHg 41%
    09:00 +32°C° 0 mm 4 mps 711 mmHg 38%
    10:00 +33°C° 0 mm 4 mps 711 mmHg 35%
    11:00 +35°C° 0 mm 4 mps 711 mmHg 32%
    12:00 +36°C° 0 mm 4 mps 711 mmHg 30%
    13:00 +37°C° 0 mm 3 mps 710 mmHg 29%
    14:00 +37°C° 0 mm 2 mps 709 mmHg 28%
    15:00 +38°C° 0 mm 2 mps 709 mmHg 27%
    16:00 +38°C° 0 mm 2 mps 709 mmHg 26%
    17:00 +39°C° 0 mm 3 mps 708 mmHg 26%
    18:00 +37°C° 0 mm 3 mps 709 mmHg 27%
    19:00 +36°C° 0 mm 4 mps 709 mmHg 29%
    20:00 +35°C° 0 mm 4 mps 710 mmHg 31%
    21:00 +34°C° 0 mm 4 mps 710 mmHg 31%
    22:00 +34°C° 0 mm 3 mps 711 mmHg 32%
    23:00 +32°C° 0 mm 2 mps 711 mmHg 32%

    Tomorrow, 18 November, Monday

    Time Temperature Precipitation Wind Pressure Humidity
    00:00 +31°C° 0 mm 2 mps 711 mmHg 34%
    01:00 +30°C° 0 mm 3 mps 711 mmHg 36%
    02:00 +30°C° 0 mm 3 mps 711 mmHg 37%
    03:00 +29°C° 0 mm 4 mps 711 mmHg 40%
    04:00 +28°C° 0 mm 4 mps 711 mmHg 42%
    05:00 +27°C° 0 mm 4 mps 712 mmHg 44%
    06:00 +28°C° 0 mm 4 mps 713 mmHg 42%
    07:00 +29°C° 0 mm 4 mps 714 mmHg 39%
    08:00 +30°C° 0 mm 5 mps 715 mmHg 36%
    09:00 +33°C° 0 mm 5 mps 715 mmHg 33%
    10:00 +34°C° 0 mm 5 mps 715 mmHg 31%
    11:00 +36°C° 0 mm 6 mps 715 mmHg 28%
    12:00 +36°C° 0.1 mm 5 mps 714 mmHg 27%
    13:00 +37°C° 0.1 mm 5 mps 714 mmHg 26%
    14:00 +39°C° 0.1 mm 5 mps 713 mmHg 25%
    15:00 +38°C° 0 mm 4 mps 713 mmHg 24%
    16:00 +38°C° 0 mm 4 mps 712 mmHg 24%
    17:00 +38°C° 0 mm 3 mps 712 mmHg 23%
    18:00 +37°C° 0 mm 3 mps 712 mmHg 24%
    19:00 +36°C° 0 mm 2 mps 713 mmHg 26%
    20:00 +35°C° 0 mm 2 mps 713 mmHg 27%
    21:00 +34°C° 0 mm 3 mps 714 mmHg 29%
    22:00 +34°C° 0 mm 3 mps 714 mmHg 31%
    23:00 +33°C° 0 mm 3 mps 714 mmHg 32%

    Day after tomorrow, 19 November, Tuesday

    Time Temperature Precipitation Wind Pressure Humidity
    00:00 +31°C° 0 mm 3 mps 714 mmHg 34%
    01:00 +30°C° 0 mm 2 mps 713 mmHg 36%
    02:00 +30°C° 0 mm 1 mps 713 mmHg 38%
    03:00 +29°C° 0 mm 2 mps 713 mmHg 39%
    04:00 +28°C° 0 mm 2 mps 713 mmHg 40%
    05:00 +28°C° 0 mm 3 mps 713 mmHg 41%
    06:00 +29°C° 0 mm 3 mps 713 mmHg 39%
    07:00 +30°C° 0 mm 3 mps 713 mmHg 37%
    08:00 +31°C° 0 mm 3 mps 714 mmHg 34%
    09:00 +33°C° 0 mm 3 mps 713 mmHg 32%
    10:00 +34°C° 0 mm 3 mps 713 mmHg 29%
    11:00 +36°C° 0 mm 3 mps 713 mmHg 27%
    12:00 +37°C° 0 mm 3 mps 712 mmHg 25%
    13:00 +38°C° 0 mm 3 mps 711 mmHg 24%
    14:00 +39°C° 0 mm 3 mps 710 mmHg 22%
    15:00 +39°C° 0.1 mm 3 mps 709 mmHg 22%
    16:00 +41°C° 0.1 mm 4 mps 709 mmHg 21%
    17:00 +41°C° 0.1 mm 5 mps 709 mmHg 21%
    18:00 +40°C° 0.2 mm 4 mps 709 mmHg 24%
    19:00 +37°C° 0.2 mm 4 mps 710 mmHg 27%
    20:00 +36°C° 0.2 mm 3 mps 711 mmHg 30%
    21:00 +35°C° 0 mm 3 mps 711 mmHg 33%
    22:00 +34°C° 0 mm 3 mps 711 mmHg 35%
    23:00 +32°C° 0 mm 2 mps 712 mmHg 38%

    20 November, Wednesday

    Time Temperature Precipitation Wind Pressure Humidity
    00:00 +32°C° 0 mm 2 mps 711 mmHg 39%
    01:00 +31°C° 0 mm 2 mps 711 mmHg 40%
    02:00 +31°C° 0 mm 2 mps 710 mmHg 41%
    03:00 +30°C° 0 mm 2 mps 710 mmHg 43%
    04:00 +29°C° 0 mm 2 mps 710 mmHg 44%
    05:00 +29°C° 0 mm 1 mps 710 mmHg 45%
    06:00 +30°C° 0 mm 2 mps 710 mmHg 42%
    07:00 +31°C° 0 mm 2 mps 711 mmHg 39%
    08:00 +34°C° 0 mm 2 mps 711 mmHg 35%
    09:00 +35°C° 0 mm 3 mps 711 mmHg 33%
    10:00 +36°C° 0 mm 3 mps 711 mmHg 30%
    11:00 +38°C° 0 mm 3 mps 711 mmHg 27%
    12:00 +39°C° 0 mm 3 mps 710 mmHg 26%
    13:00 +40°C° 0 mm 3 mps 710 mmHg 24%
    14:00 +42°C° 0 mm 3 mps 709 mmHg 22%
    15:00 +42°C° 0 mm 3 mps 708 mmHg 21%
    16:00 +42°C° 0 mm 3 mps 708 mmHg 21%
    17:00 +41°C° 0 mm 2 mps 707 mmHg 20%
    18:00 +40°C° 0.1 mm 2 mps 707 mmHg 22%
    19:00 +38°C° 0.1 mm 2 mps 708 mmHg 25%
    20:00 +36°C° 0.1 mm 1 mps 708 mmHg 27%
    21:00 +36°C° 0.1 mm 2 mps 708 mmHg 28%
    22:00 +36°C° 0.1 mm 3 mps 709 mmHg 29%
    23:00 +35°C° 0.1 mm 3 mps 709 mmHg 31%

    21 November, Thursday

    Time Temperature Precipitation Wind Pressure Humidity
    00:00 +35°C° 0 mm 4 mps 709 mmHg 33%
    01:00 +34°C° 0 mm 4 mps 708 mmHg 35%
    02:00 +33°C° 0 mm 4 mps 708 mmHg 37%
    03:00 +32°C° 0 mm 4 mps 708 mmHg 40%
    04:00 +30°C° 0 mm 4 mps 708 mmHg 43%
    05:00 +30°C° 0 mm 3 mps 708 mmHg 46%
    06:00 +32°C° 0 mm 4 mps 708 mmHg 43%
    07:00 +33°C° 0 mm 5 mps 709 mmHg 40%
    08:00 +34°C° 0 mm 5 mps 709 mmHg 37%
    09:00 +36°C° 0 mm 6 mps 709 mmHg 33%
    10:00 +38°C° 0 mm 6 mps 709 mmHg 30%
    11:00 +40°C° 0 mm 7 mps 710 mmHg 27%
    12:00 +40°C° 0 mm 7 mps 709 mmHg 26%
    13:00 +41°C° 0 mm 7 mps 708 mmHg 25%
    14:00 +41°C° 0 mm 7 mps 708 mmHg 24%
    15:00 +41°C° 0.1 mm 6 mps 708 mmHg 25%
    16:00 +41°C° 0.1 mm 6 mps 708 mmHg 26%
    17:00 +40°C° 0.1 mm 5 mps 707 mmHg 27%
    18:00 +37°C° 1 mm 5 mps 708 mmHg 33%
    19:00 +34°C° 1 mm 5 mps 709 mmHg 40%
    20:00 +32°C° 1 mm 5 mps 710 mmHg 47%
    21:00 +32°C° 0.5 mm 4 mps 711 mmHg 48%
    22:00 +30°C° 0.5 mm 3 mps 711 mmHg 48%
    23:00 +30°C° 0.5 mm 2 mps 712 mmHg 49%

    22 November, Friday

    Time Temperature Precipitation Wind Pressure Humidity
    00:00 +30°C° 0.2 mm 2 mps 712 mmHg 50%
    01:00 +29°C° 0.2 mm 3 mps 712 mmHg 51%
    02:00 +28°C° 0.2 mm 4 mps 712 mmHg 52%
    03:00 +28°C° 0 mm 4 mps 712 mmHg 55%
    04:00 +27°C° 0 mm 4 mps 713 mmHg 58%
    05:00 +27°C° 0 mm 4 mps 713 mmHg 61%
    06:00 +27°C° 0.1 mm 4 mps 714 mmHg 60%
    07:00 +28°C° 0.1 mm 4 mps 714 mmHg 58%
    08:00 +28°C° 0.1 mm 3 mps 715 mmHg 57%
    09:00 +29°C° 0.2 mm 3 mps 715 mmHg 54%
    10:00 +30°C° 0.2 mm 3 mps 715 mmHg 50%
    11:00 +31°C° 0.2 mm 3 mps 715 mmHg 47%
    12:00 +33°C° 0.3 mm 3 mps 714 mmHg 47%
    13:00 +33°C° 0.3 mm 4 mps 713 mmHg 46%
    14:00 +33°C° 0.3 mm 5 mps 712 mmHg 46%
    15:00 +33°C° 0.2 mm 5 mps 712 mmHg 48%
    16:00 +32°C° 0.2 mm 5 mps 711 mmHg 50%
    17:00 +32°C° 0.2 mm 5 mps 710 mmHg 53%
    18:00 +30°C° 0.8 mm 4 mps 711 mmHg 57%
    19:00 +29°C° 0.8 mm 4 mps 712 mmHg 62%
    20:00 +28°C° 0.8 mm 4 mps 712 mmHg 67%
    21:00 +28°C° 1.1 mm 3 mps 713 mmHg 69%
    22:00 +27°C° 1.1 mm 3 mps 713 mmHg 71%
    23:00 +27°C° 1.1 mm 2 mps 713 mmHg 73%
    Show more